This is the latest recevied weather packets stored in our database for station/object JA3YAI-13. If no packets are shown the sender has not sent any weather packets the latest 10 day(s).
| Time | Temp. | Humidity | Pressure | Rain* | Wind** | Luminosity | Snow |
|---|---|---|---|---|---|---|---|
| 1777722984 | 15° C | 91% | 1005.2 hPa | 0 mm | - | - | - |
| 1777722385 | 15° C | 91% | 1005.2 hPa | 0 mm | - | - | - |
| 1777721785 | 15° C | 90% | 1004.8 hPa | 0 mm | - | - | - |
| 1777721184 | 15.56° C | 90% | 1004.8 hPa | 0 mm | - | - | - |
| 1777720584 | 15.56° C | 88% | 1004.6 hPa | 0 mm | - | - | - |
| 1777719985 | 16.11° C | 87% | 1004.5 hPa | 0 mm | - | - | - |
| 1777719385 | 16.67° C | 86% | 1004.4 hPa | 0 mm | - | - | - |
| 1777718784 | 17.22° C | 85% | 1004.2 hPa | 0 mm | - | - | - |
| 1777718184 | 17.22° C | 86% | 1004.3 hPa | 0 mm | - | - | - |
| 1777717585 | 16.67° C | 86% | 1004.2 hPa | 0 mm | - | - | - |
| 1777716985 | 17.22° C | 86% | 1004.1 hPa | 0 mm | - | - | - |
| 1777716385 | 17.22° C | 87% | 1003.9 hPa | 0 mm | - | - | - |
| 1777715784 | 17.78° C | 86% | 1003.9 hPa | 0 mm | - | - | - |
| 1777715184 | 18.33° C | 85% | 1004 hPa | 0 mm | - | - | - |
| 1777714585 | 18.33° C | 83% | 1003.9 hPa | 0 mm | - | - | - |
| 1777713985 | 18.89° C | 81% | 1004 hPa | 0 mm | - | - | - |
| 1777713385 | 19.44° C | 80% | 1004 hPa | 0 mm | - | - | - |
| 1777712785 | 19.44° C | 79% | 1003.8 hPa | 0 mm | - | - | - |
| 1777712184 | 20° C | 77% | 1003.7 hPa | 0 mm | - | - | - |
| 1777711584 | 20.56° C | 73% | 1003.5 hPa | 0 mm | - | - | - |
| 1777710985 | 21.11° C | 74% | 1003.4 hPa | 0 mm | - | - | - |
| 1777710385 | 21.11° C | 74% | 1003.4 hPa | 0 mm | - | - | - |
| 1777709785 | 21.11° C | 73% | 1003.6 hPa | 0 mm | - | - | - |
| 1777709184 | 21.67° C | 73% | 1003.3 hPa | 0 mm | - | - | - |
| 1777708584 | 21.67° C | 72% | 1003.2 hPa | 0 mm | - | - | - |
* Rain latest hour (hover to see other rain measurements)
** Current wind speed in m/s (hover to see current wind gust speed)